Torreon, México

3:41 PM CDT en Octubre 22, 2017 (GMT -0500)
Torreon International

Tiempo Historia de MMTC - Abril, 2017

Change the Weather History Date:

Viernes, Abril 21, 2017

  Actual Average Record
Temperature  
Temperatura media 80 ° F -  
Temperatura máxima 101 ° F 92 ° F 101 ° F (2017)
Temperatura mínima 60 ° F 66 ° F 59 ° F (2013)
Cooling Degree Days 16    
Growing Degree Days 30 (Base 50)    
Moisture  
Punto de rocío 41 ° F    
Average Humidity 23    
Maximum Humidity 54    
Minimum Humidity 9    
Precipitación  
Precipitación 0.00 pul - - ()
Presión al nivel del mar  
Presión al nivel del mar 29.76 pul    
Viento  
Velocidad del viento 4 mph ()    
Velocidad máxima del viento 12 mph    
Max Gust Speed -    
Visibilidad 12.0 Millas    
Eventos      
Averages and records for this station are not official NWS values.
T = Trace of Precipitation, MM = Missing Value Source: Averaged Metar Reports

Daily Weather History Graph

Daily Weather History Graph

Search for Another Location

Airport or City:

Trip Planner

Search our weather history database for the weather conditions in past years. The results will help you decide how hot, cold, wet, or windy it might be!

Date:

Astronomía

Apr. 21, 2017 Salida Puesta
Hora real 7:25 AM EST 8:19 PM EST
Crepúsculo civil 7:01 AM EST 8:43 PM EST
Crepúsculo náutico 6:33 AM EST 9:11 PM EST
Crepúsculo astronómico 6:05 AM EST 9:40 PM EST
Luna 4:06 AM EST (4/21) 3:41 PM EST (4/21)
Horas de luz 13h 42m
Horas de luz
12h 54m
Creciente menguante, 28% of the Moon is Illuminated
Abr 21
Creciente menguante
Abr 26
Nueva
May 2
Cuarto creciente
May 10
Luna llena
May 18
Cuarto menguante

Hourly Weather History & Observations

Hora (EST) Temp. Punto de rocío Humedad Presión Visibilidad Wind Dir Velocidad del viento Velocidad de ráfagas Precip Eventos Condiciones
12:45 AM 78 ° F 53 ° F 30% 29.65 pul 6 mi Este 2.2 mph - -  
3:45 AM 69 ° F 56 ° F 54% 29.66 pul 6 mi NE 2.2 mph - -  
4:41 AM 73.4 ° F 32.0 ° F 22% 29.94 pul 8.0 mi ESE 3.5 mph - N/A   Despejado
6:46 AM 68.0 ° F 33.8 ° F 28% 29.67 pul 8.0 mi ESE 8.1 mph - N/A   Despejado
6:50 AM 65 ° F 45 ° F 37% 29.73 pul 6 mi ESE 2.2 mph - -  
7:46 AM 66.2 ° F 35.6 ° F 32% 29.99 pul 10.0 mi ESE 4.6 mph - N/A   Despejado
8:43 AM 68.0 ° F 37.4 ° F 33% 30.00 pul 10.0 mi ESE 6.9 mph - N/A   Despejado
9:40 AM 73.4 ° F 42.8 ° F 33% 29.71 pul 10.0 mi Este 5.8 mph - N/A   Despejado
9:45 AM 71 ° F 50 ° F 37% 29.80 pul 19 mi ESE 2.2 mph - -  
10:43 AM 78.8 ° F 46.4 ° F 32% 30.01 pul 12.0 mi ENE 8.1 mph - N/A   Despejado
11:41 AM 84.2 ° F 44.6 ° F 25% 30.00 pul 12.0 mi Este 11.5 mph - N/A   Despejado
12:45 PM 87 ° F 56 ° F 25% 29.77 pul 19 mi ENE 4.5 mph - -  
12:45 PM 87.8 ° F 41.0 ° F 19% 29.65 pul 12.0 mi NE 9.2 mph - N/A   Despejado
1:41 PM 89.6 ° F 37.4 ° F 16% 29.94 pul 12.0 mi SE 4.6 mph - N/A   Despejado
2:40 PM 93.2 ° F 35.6 ° F 13% 29.90 pul 12.0 mi Sin viento Sin viento - N/A   Despejado
3:44 PM 95.0 ° F 32.0 ° F 11% 29.51 pul 15.0 mi Sin viento Sin viento - N/A   Despejado
3:45 PM 97 ° F 56 ° F 17% 29.62 pul 19 mi Este 6.7 mph - -   Nubes dispersas
4:42 PM 96.8 ° F 30.2 ° F 10% 29.84 pul 15.0 mi ENE 10.4 mph - N/A   Parcialmente nublado
5:46 PM 96.8 ° F 30.2 ° F 10% 29.83 pul 15.0 mi Norte 9.2 mph - N/A   Parcialmente nublado
6:45 PM 97 ° F 60 ° F 20% 29.51 pul 19 mi Este 2.2 mph - -  
6:52 PM 96.8 ° F 28.4 ° F 9% 29.50 pul 15.0 mi Norte 11.5 mph - N/A   Nubes dispersas
7:54 PM 93.2 ° F 28.4 ° F 10% 29.82 pul 15.0 mi NNE 6.9 mph - N/A   Nubes dispersas
8:48 PM 89.6 ° F 32.0 ° F 13% 29.83 pul 10.0 mi NNE 3.5 mph - N/A   Muy nublado
9:45 PM 85 ° F 66 ° F 43% 29.50 pul 6 mi ESE 2.2 mph - -   Nubes dispersas
10:00 PM 86.0 ° F 32.0 ° F 14% 29.57 pul 10.0 mi Sin viento Sin viento - N/A   Muy nublado
10:40 PM 84.2 ° F 33.8 ° F 16% 29.87 pul 10.0 mi Sin viento Sin viento - N/A   Nubes dispersas